CCA969 ZSPD-ZSAM

Flight info

Callsign CCA969
Flight time 1h 31m
Altitude 30100
Route NXD84D NXD W131 AKDIM A470 ENVEN ENVEN8X
Aircraft B77W/H-SDE1E2E3FGHIJ2J3J4J5M1RWXY/LB1D1

Departure

Time 2026-05-04 13:17
Airport Shanghai Pudong International Airport (ZSPD)

Arrival

Time 2026-05-04 14:48
Airport Xiamen Gaoqi International Airport (ZSAM)
Time Latitude Longitude Altitude Speed Heading
2026-05-04 12:52 31.15571 121.80659 28 ft 0 kts 252°
2026-05-04 13:08 31.15572 121.80662 28 ft 1 kts 252°
2026-05-04 13:08 31.15577 121.80681 28 ft 3 kts 252°
2026-05-04 13:08 31.15584 121.80703 27 ft 3 kts 253°
2026-05-04 13:08 31.15588 121.80725 28 ft 3 kts 266°
2026-05-04 13:09 31.15588 121.80742 26 ft 3 kts 294°
2026-05-04 13:09 31.15586 121.80750 26 ft 3 kts 333°
2026-05-04 13:09 31.15579 121.80754 24 ft 2 kts 342°
2026-05-04 13:09 31.15560 121.80761 26 ft 3 kts 342°
2026-05-04 13:10 31.15548 121.80765 27 ft 0 kts 342°
2026-05-04 13:13 31.15617 121.80739 28 ft 10 kts 342°
2026-05-04 13:13 31.15673 121.80767 28 ft 10 kts 57°
2026-05-04 13:14 31.15695 121.80844 27 ft 11 kts 72°
2026-05-04 13:14 31.15720 121.80931 27 ft 11 kts 72°
2026-05-04 13:14 31.15721 121.80938 27 ft 0 kts 72°
2026-05-04 13:15 31.15726 121.80956 27 ft 13 kts 72°
2026-05-04 13:15 31.15757 121.81067 27 ft 15 kts 72°
2026-05-04 13:15 31.15787 121.81182 27 ft 10 kts 81°
2026-05-04 13:15 31.15738 121.81240 26 ft 11 kts 159°
2026-05-04 13:16 31.15730 121.81243 26 ft 0 kts 160°
2026-05-04 13:16 31.15729 121.81244 26 ft 3 kts 160°
2026-05-04 13:16 31.15518 121.81325 27 ft 63 kts 162°
2026-05-04 13:16 31.14834 121.81583 26 ft 145 kts 162°
2026-05-04 13:17 31.13705 121.82023 408 ft 178 kts 161°
2026-05-04 13:17 31.12566 121.82495 1510 ft 173 kts 158°
2026-05-04 13:17 31.11451 121.83096 2444 ft 180 kts 156°
2026-05-04 13:17 31.10280 121.83811 3063 ft 201 kts 156°
2026-05-04 13:18 31.08892 121.84593 3170 ft 243 kts 157°
2026-05-04 13:18 31.07383 121.85565 3091 ft 252 kts 149°
2026-05-04 13:18 31.05926 121.86749 3006 ft 258 kts 146°
2026-05-04 13:18 31.04457 121.87985 3006 ft 262 kts 146°
2026-05-04 13:19 31.02975 121.89224 3005 ft 263 kts 147°
2026-05-04 13:19 31.01989 121.90044 2997 ft 262 kts 147°
2026-05-04 13:19 31.00078 121.91812 3008 ft 263 kts 140°
2026-05-04 13:19 30.98733 121.93270 3001 ft 264 kts 139°
2026-05-04 13:20 30.97386 121.94730 3017 ft 264 kts 139°
2026-05-04 13:20 30.96035 121.96179 3002 ft 264 kts 140°
2026-05-04 13:20 30.94682 121.97622 3018 ft 262 kts 138°
2026-05-04 13:20 30.93655 121.99370 3016 ft 267 kts 110°
2026-05-04 13:21 30.93510 122.01519 3026 ft 271 kts 81°
2026-05-04 13:21 30.94018 122.03598 3035 ft 272 kts 72°
2026-05-04 13:21 30.94422 122.05013 3111 ft 274 kts 72°
2026-05-04 13:21 30.95025 122.07129 3981 ft 276 kts 72°
2026-05-04 13:22 30.95995 122.09863 5463 ft 275 kts 51°
2026-05-04 13:22 30.96900 122.10877 6218 ft 271 kts 31°
2026-05-04 13:22 30.98627 122.11619 7433 ft 265 kts
2026-05-04 13:22 31.01039 122.11256 8696 ft 268 kts 342°
2026-05-04 13:23 31.02249 122.10811 9341 ft 272 kts 341°
2026-05-04 13:23 31.04064 122.10119 10350 ft 277 kts 341°
2026-05-04 13:23 31.05956 122.09397 10945 ft 300 kts 341°
2026-05-04 13:23 31.08782 122.08326 11283 ft 345 kts 341°
2026-05-04 13:24 31.10361 122.07731 11612 ft 361 kts 341°
2026-05-04 13:24 31.12797 122.06818 12601 ft 372 kts 341°
2026-05-04 13:24 31.15281 122.05889 13778 ft 379 kts 341°
2026-05-04 13:25 31.19556 122.02453 15644 ft 387 kts 301°
2026-05-04 13:25 31.20616 121.99575 16852 ft 388 kts 284°
2026-05-04 13:25 31.20986 121.96462 18101 ft 389 kts 270°
2026-05-04 13:25 31.20618 121.93328 19073 ft 391 kts 258°
2026-05-04 13:26 31.20019 121.90250 19984 ft 396 kts 257°
2026-05-04 13:26 31.19364 121.87118 21060 ft 397 kts 257°
2026-05-04 13:26 31.18700 121.83991 22174 ft 397 kts 257°
2026-05-04 13:26 31.18039 121.80850 23223 ft 399 kts 257°
2026-05-04 13:27 31.17385 121.77694 24100 ft 402 kts 258°
2026-05-04 13:27 31.16733 121.74506 24889 ft 405 kts 258°
2026-05-04 13:27 31.16084 121.71302 25553 ft 408 kts 258°
2026-05-04 13:27 31.15431 121.68062 25709 ft 416 kts 258°
2026-05-04 13:28 31.14761 121.64724 25706 ft 426 kts 258°
2026-05-04 13:28 31.14081 121.61333 25710 ft 430 kts 258°
2026-05-04 13:28 31.13396 121.57929 25703 ft 433 kts 258°
2026-05-04 13:28 31.12706 121.54503 25704 ft 433 kts 258°
2026-05-04 13:29 31.12017 121.51086 25700 ft 433 kts 258°
2026-05-04 13:29 31.11324 121.47658 25699 ft 433 kts 258°
2026-05-04 13:29 31.10631 121.44234 25700 ft 433 kts 258°
2026-05-04 13:29 31.09939 121.40815 25700 ft 433 kts 258°
2026-05-04 13:30 31.09246 121.37401 25701 ft 433 kts 258°
2026-05-04 13:30 31.08551 121.33979 25705 ft 433 kts 258°
2026-05-04 13:30 31.07855 121.30560 25702 ft 433 kts 258°
2026-05-04 13:30 31.07158 121.27139 25703 ft 433 kts 258°
2026-05-04 13:31 31.06461 121.23724 25700 ft 433 kts 258°
2026-05-04 13:31 31.05762 121.20305 25704 ft 433 kts 258°
2026-05-04 13:31 31.05064 121.16891 25703 ft 433 kts 258°
2026-05-04 13:31 31.04362 121.13467 25703 ft 433 kts 258°
2026-05-04 13:32 31.03661 121.10053 25697 ft 433 kts 258°
2026-05-04 13:32 31.02959 121.06633 25696 ft 434 kts 258°
2026-05-04 13:32 31.02256 121.03220 25697 ft 434 kts 258°
2026-05-04 13:32 31.01551 120.99799 25696 ft 434 kts 258°
2026-05-04 13:33 31.00845 120.96379 25690 ft 434 kts 258°
2026-05-04 13:33 31.00138 120.92959 25691 ft 434 kts 258°
2026-05-04 13:33 30.99439 120.89582 25688 ft 434 kts 258°
2026-05-04 13:33 30.98731 120.86166 25690 ft 434 kts 258°
2026-05-04 13:34 30.98020 120.82739 25690 ft 434 kts 258°
2026-05-04 13:34 30.97309 120.79318 25689 ft 435 kts 258°
2026-05-04 13:34 30.96596 120.75892 25687 ft 435 kts 258°
2026-05-04 13:34 30.95883 120.72473 25685 ft 435 kts 258°
2026-05-04 13:35 30.95168 120.69046 25686 ft 435 kts 258°
2026-05-04 13:35 30.93738 120.62209 25686 ft 435 kts 258°
2026-05-04 13:35 30.93022 120.58790 25683 ft 435 kts 258°
2026-05-04 13:36 30.92303 120.55363 25684 ft 435 kts 258°
2026-05-04 13:36 30.91583 120.51937 25682 ft 435 kts 257°
2026-05-04 13:36 30.90835 120.48527 25676 ft 433 kts 254°
2026-05-04 13:36 30.89604 120.45316 25679 ft 440 kts 243°
2026-05-04 13:37 30.87851 120.42357 25687 ft 444 kts 235°
2026-05-04 13:37 30.85783 120.39739 25677 ft 449 kts 226°
2026-05-04 13:37 30.83284 120.37550 25692 ft 452 kts 220°
2026-05-04 13:37 30.80668 120.35435 25683 ft 453 kts 220°
2026-05-04 13:38 30.78104 120.33378 25678 ft 454 kts 220°
2026-05-04 13:38 30.75507 120.31286 25681 ft 453 kts 220°
2026-05-04 13:38 30.72921 120.29190 25679 ft 453 kts 220°
2026-05-04 13:38 30.70344 120.27086 25680 ft 453 kts 220°
2026-05-04 13:39 30.67769 120.24977 25681 ft 453 kts 220°
2026-05-04 13:39 30.65194 120.22866 25682 ft 453 kts 220°
2026-05-04 13:39 30.62516 120.20920 25682 ft 457 kts 214°
2026-05-04 13:39 30.59658 120.19264 25686 ft 460 kts 210°
2026-05-04 13:40 30.56655 120.17914 25683 ft 464 kts 205°
2026-05-04 13:40 30.54053 120.16636 25681 ft 462 kts 208°
2026-05-04 13:40 30.51033 120.15327 25690 ft 464 kts 205°
2026-05-04 13:40 30.47963 120.14122 25689 ft 465 kts 205°
2026-05-04 13:41 30.44891 120.12950 25683 ft 465 kts 204°
2026-05-04 13:41 30.41819 120.11765 25684 ft 464 kts 205°
2026-05-04 13:41 30.38767 120.10563 25683 ft 463 kts 205°
2026-05-04 13:42 30.32690 120.08104 25687 ft 462 kts 205°
2026-05-04 13:42 30.29661 120.06860 25691 ft 461 kts 206°
2026-05-04 13:42 30.26633 120.05611 25689 ft 461 kts 206°
2026-05-04 13:42 30.23654 120.04383 25693 ft 461 kts 206°
2026-05-04 13:43 30.20637 120.03139 25693 ft 460 kts 206°
2026-05-04 13:43 30.17620 120.01898 25693 ft 460 kts 206°
2026-05-04 13:43 30.14608 120.00660 25694 ft 459 kts 206°
2026-05-04 13:43 30.11599 119.99424 25695 ft 459 kts 206°
2026-05-04 13:44 30.08590 119.98189 25706 ft 459 kts 206°
2026-05-04 13:44 30.05583 119.96956 25698 ft 459 kts 206°
2026-05-04 13:44 30.02573 119.95725 25697 ft 458 kts 206°
2026-05-04 13:44 29.99566 119.94495 25702 ft 457 kts 206°
2026-05-04 13:45 29.96569 119.93270 25703 ft 457 kts 206°
2026-05-04 13:45 29.93573 119.92047 25697 ft 457 kts 206°
2026-05-04 13:45 29.90574 119.90823 25703 ft 456 kts 206°
2026-05-04 13:45 29.87584 119.89602 25703 ft 456 kts 206°
2026-05-04 13:46 29.84601 119.88385 25700 ft 455 kts 206°
2026-05-04 13:46 29.81610 119.87165 25708 ft 455 kts 206°
2026-05-04 13:46 29.78635 119.85953 25704 ft 454 kts 206°
2026-05-04 13:46 29.75651 119.84736 25730 ft 454 kts 206°
2026-05-04 13:47 29.72674 119.83524 25706 ft 454 kts 206°
2026-05-04 13:47 29.69697 119.82313 25714 ft 454 kts 206°
2026-05-04 13:47 29.66720 119.81103 25701 ft 454 kts 206°
2026-05-04 13:47 29.63779 119.79909 25719 ft 454 kts 206°
2026-05-04 13:48 29.60765 119.78683 25723 ft 454 kts 206°
2026-05-04 13:48 29.57827 119.77489 25730 ft 454 kts 206°
2026-05-04 13:48 29.54812 119.76268 25699 ft 453 kts 206°
2026-05-04 13:48 29.51837 119.75065 25718 ft 453 kts 206°
2026-05-04 13:49 29.48904 119.73879 25703 ft 453 kts 206°
2026-05-04 13:49 29.45933 119.72678 25715 ft 453 kts 206°
2026-05-04 13:49 29.42958 119.71476 25707 ft 453 kts 206°
2026-05-04 13:49 29.39981 119.70273 25716 ft 453 kts 206°
2026-05-04 13:50 29.37003 119.69070 25724 ft 454 kts 206°
2026-05-04 13:50 29.34025 119.67868 25715 ft 454 kts 206°
2026-05-04 13:50 29.31038 119.66664 25716 ft 454 kts 206°
2026-05-04 13:50 29.28056 119.65463 25724 ft 454 kts 206°
2026-05-04 13:51 29.25062 119.64257 25711 ft 455 kts 206°
2026-05-04 13:51 29.22074 119.63054 25715 ft 455 kts 206°
2026-05-04 13:51 29.19083 119.61850 25724 ft 456 kts 206°
2026-05-04 13:51 29.16086 119.60647 25724 ft 456 kts 206°
2026-05-04 13:52 29.10138 119.58258 25719 ft 456 kts 206°
2026-05-04 13:52 29.07142 119.57055 25721 ft 457 kts 206°
2026-05-04 13:52 29.04141 119.55851 25725 ft 457 kts 206°
2026-05-04 13:53 29.01143 119.54649 25726 ft 457 kts 206°
2026-05-04 13:53 28.98141 119.53445 25726 ft 457 kts 206°
2026-05-04 13:53 28.95137 119.52243 25733 ft 457 kts 206°
2026-05-04 13:54 28.89125 119.49838 25730 ft 458 kts 206°
2026-05-04 13:54 28.86119 119.48636 25720 ft 458 kts 206°
2026-05-04 13:54 28.80105 119.46237 25734 ft 458 kts 206°
2026-05-04 13:55 28.77102 119.45038 25734 ft 458 kts 206°
2026-05-04 13:55 28.71090 119.42643 25740 ft 457 kts 206°
2026-05-04 13:55 28.68084 119.41446 25735 ft 458 kts 206°
2026-05-04 13:56 28.65077 119.40250 25734 ft 458 kts 206°
2026-05-04 13:56 28.62072 119.39056 25729 ft 458 kts 205°
2026-05-04 13:56 28.55763 119.37581 25747 ft 470 kts 193°
2026-05-04 13:57 28.52476 119.37374 25746 ft 476 kts 187°
2026-05-04 13:57 28.49148 119.37538 25747 ft 479 kts 184°
2026-05-04 13:58 28.39169 119.38369 25764 ft 480 kts 183°
2026-05-04 13:58 28.32492 119.38926 25765 ft 482 kts 183°
2026-05-04 13:58 28.29147 119.39193 25755 ft 481 kts 184°
2026-05-04 13:59 28.25807 119.39452 25756 ft 481 kts 184°
2026-05-04 13:59 28.22463 119.39708 25753 ft 481 kts 184°
2026-05-04 13:59 28.15822 119.40215 25732 ft 482 kts 184°
2026-05-04 14:00 28.12475 119.40468 25765 ft 483 kts 184°
2026-05-04 14:00 28.05774 119.40980 25758 ft 483 kts 184°
2026-05-04 14:00 28.02445 119.41239 25754 ft 482 kts 184°
2026-05-04 14:01 27.99096 119.41495 25781 ft 482 kts 184°
2026-05-04 14:01 27.95750 119.41753 25772 ft 482 kts 184°
2026-05-04 14:01 27.89054 119.42264 25778 ft 482 kts 184°
2026-05-04 14:02 27.85711 119.42519 25771 ft 482 kts 184°
2026-05-04 14:02 27.82360 119.42774 25781 ft 482 kts 184°
2026-05-04 14:02 27.79017 119.43028 25765 ft 482 kts 184°
2026-05-04 14:02 27.75674 119.43283 25783 ft 482 kts 184°
2026-05-04 14:03 27.72333 119.43540 25773 ft 481 kts 184°
2026-05-04 14:03 27.68997 119.43795 25765 ft 481 kts 184°
2026-05-04 14:03 27.65658 119.44046 25796 ft 481 kts 184°
2026-05-04 14:03 27.62317 119.44300 25776 ft 481 kts 184°
2026-05-04 14:04 27.55633 119.44809 25783 ft 480 kts 184°
2026-05-04 14:04 27.52299 119.45062 25777 ft 480 kts 184°
2026-05-04 14:04 27.48971 119.45313 25792 ft 480 kts 184°
2026-05-04 14:05 27.42305 119.45819 25788 ft 480 kts 184°
2026-05-04 14:05 27.40097 119.45986 25782 ft 480 kts 184°
2026-05-04 14:05 27.35637 119.46324 25787 ft 480 kts 184°
2026-05-04 14:06 27.32311 119.46577 25781 ft 481 kts 184°
2026-05-04 14:06 27.29003 119.46825 25778 ft 482 kts 184°
2026-05-04 14:06 27.25672 119.47076 25784 ft 480 kts 184°
2026-05-04 14:06 27.22338 119.47327 25780 ft 479 kts 184°
2026-05-04 14:07 27.19017 119.47578 25781 ft 479 kts 184°
2026-05-04 14:07 27.15691 119.47829 25787 ft 479 kts 184°
2026-05-04 14:07 27.12364 119.48080 25778 ft 479 kts 184°
2026-05-04 14:07 27.09040 119.48330 25781 ft 478 kts 184°
2026-05-04 14:08 27.06842 119.48496 25785 ft 478 kts 184°
2026-05-04 14:08 27.02397 119.48829 25774 ft 478 kts 184°
2026-05-04 14:08 26.99082 119.49078 25797 ft 478 kts 184°
2026-05-04 14:08 26.95756 119.49328 25770 ft 478 kts 184°
2026-05-04 14:09 26.90231 119.49742 25782 ft 479 kts 184°
2026-05-04 14:09 26.86910 119.49992 25788 ft 479 kts 184°
2026-05-04 14:10 26.80262 119.50491 25782 ft 479 kts 184°
2026-05-04 14:10 26.75809 119.50824 25785 ft 479 kts 184°
2026-05-04 14:10 26.73617 119.50987 25780 ft 479 kts 184°
2026-05-04 14:10 26.70286 119.51236 25778 ft 479 kts 184°
2026-05-04 14:11 26.66960 119.51485 25781 ft 479 kts 184°
2026-05-04 14:11 26.60300 119.51982 25778 ft 479 kts 184°
2026-05-04 14:11 26.56970 119.52231 25776 ft 480 kts 184°
2026-05-04 14:12 26.53632 119.52481 25769 ft 480 kts 184°
2026-05-04 14:12 26.50294 119.52729 25760 ft 480 kts 184°
2026-05-04 14:12 26.43626 119.53225 25768 ft 480 kts 183°
2026-05-04 14:13 26.40285 119.53476 25755 ft 481 kts 183°
2026-05-04 14:13 26.36994 119.53720 25771 ft 480 kts 184°
2026-05-04 14:13 26.33660 119.53967 25762 ft 480 kts 184°
2026-05-04 14:13 26.30330 119.54214 25765 ft 480 kts 184°
2026-05-04 14:14 26.26995 119.54450 25763 ft 479 kts 185°
2026-05-04 14:14 26.20443 119.53954 25753 ft 467 kts 196°
2026-05-04 14:14 26.17274 119.53252 25755 ft 462 kts 201°
2026-05-04 14:15 26.11148 119.51179 25756 ft 460 kts 204°
2026-05-04 14:15 26.05042 119.49059 25757 ft 459 kts 204°
2026-05-04 14:16 25.98931 119.46966 25759 ft 460 kts 203°
2026-05-04 14:16 25.95874 119.45925 25766 ft 460 kts 203°
2026-05-04 14:17 25.89752 119.43845 25749 ft 460 kts 203°
2026-05-04 14:17 25.86691 119.42805 25749 ft 460 kts 203°
2026-05-04 14:17 25.80610 119.40742 25764 ft 460 kts 203°
2026-05-04 14:18 25.77605 119.39588 25731 ft 454 kts 210°
2026-05-04 14:18 25.72265 119.36032 25760 ft 445 kts 221°
2026-05-04 14:19 25.67817 119.31346 25771 ft 440 kts 231°
2026-05-04 14:19 25.65724 119.28855 25756 ft 440 kts 231°
2026-05-04 14:19 25.63639 119.26373 25754 ft 440 kts 231°
2026-05-04 14:19 25.61547 119.23891 25745 ft 441 kts 230°
2026-05-04 14:20 25.59450 119.21416 25750 ft 441 kts 230°
2026-05-04 14:20 25.57350 119.18945 25759 ft 441 kts 230°
2026-05-04 14:20 25.55246 119.16475 25754 ft 440 kts 230°
2026-05-04 14:21 25.51040 119.11549 25756 ft 441 kts 230°
2026-05-04 14:21 25.48933 119.09084 25751 ft 440 kts 230°
2026-05-04 14:21 25.46825 119.06619 25758 ft 441 kts 230°
2026-05-04 14:21 25.44719 119.04157 25756 ft 441 kts 230°
2026-05-04 14:22 25.42611 119.01693 25758 ft 441 kts 230°
2026-05-04 14:22 25.40504 118.99231 25760 ft 441 kts 230°
2026-05-04 14:22 25.38397 118.96770 25761 ft 441 kts 230°
2026-05-04 14:22 25.36283 118.94306 25760 ft 441 kts 230°
2026-05-04 14:23 25.32107 118.89392 25757 ft 441 kts 231°
2026-05-04 14:23 25.30040 118.86889 25755 ft 441 kts 231°
2026-05-04 14:23 25.27982 118.84383 25754 ft 441 kts 231°
2026-05-04 14:24 25.25922 118.81873 25752 ft 441 kts 231°
2026-05-04 14:24 25.23857 118.79365 25739 ft 441 kts 231°
2026-05-04 14:24 25.21794 118.76867 25757 ft 441 kts 231°
2026-05-04 14:24 25.19726 118.74369 25745 ft 435 kts 231°
2026-05-04 14:25 25.17722 118.71953 25735 ft 420 kts 231°
2026-05-04 14:25 25.13905 118.67354 25565 ft 393 kts 231°
2026-05-04 14:25 25.12069 118.65138 25037 ft 389 kts 231°
2026-05-04 14:26 25.10253 118.62948 24404 ft 387 kts 231°
2026-05-04 14:26 25.08425 118.60760 23742 ft 389 kts 230°
2026-05-04 14:26 25.06540 118.58573 22888 ft 398 kts 230°
2026-05-04 14:26 25.04613 118.56367 22145 ft 399 kts 229°
2026-05-04 14:27 25.02688 118.54172 21409 ft 397 kts 229°
2026-05-04 14:27 25.00781 118.51995 20798 ft 391 kts 229°
2026-05-04 14:27 24.98932 118.49883 20616 ft 376 kts 229°
2026-05-04 14:27 24.97146 118.47839 20386 ft 363 kts 229°
2026-05-04 14:28 24.95425 118.45866 20210 ft 350 kts 229°
2026-05-04 14:28 24.93766 118.43963 20084 ft 338 kts 229°
2026-05-04 14:28 24.92165 118.42125 19938 ft 327 kts 229°
2026-05-04 14:28 24.90621 118.40354 19832 ft 315 kts 229°
2026-05-04 14:29 24.87686 118.36994 19600 ft 293 kts 230°
2026-05-04 14:29 24.85423 118.33793 19391 ft 265 kts 252°
2026-05-04 14:30 24.85093 118.31823 19288 ft 255 kts 267°
2026-05-04 14:30 24.85231 118.29879 18989 ft 256 kts 277°
2026-05-04 14:30 24.86837 118.26399 18404 ft 265 kts 303°
2026-05-04 14:31 24.88029 118.24845 18016 ft 266 kts 303°
2026-05-04 14:31 24.89850 118.21446 17346 ft 255 kts 291°
2026-05-04 14:32 24.91418 118.17948 16653 ft 252 kts 291°
2026-05-04 14:32 24.92189 118.16237 16379 ft 246 kts 287°
2026-05-04 14:32 24.92684 118.14459 16071 ft 241 kts 279°
2026-05-04 14:32 24.93072 118.12658 15755 ft 242 kts 279°
2026-05-04 14:33 24.93465 118.10853 15442 ft 243 kts 279°
2026-05-04 14:33 24.93869 118.09046 15124 ft 243 kts 280°
2026-05-04 14:33 24.94259 118.07237 14817 ft 241 kts 275°
2026-05-04 14:33 24.94382 118.05402 14518 ft 240 kts 269°
2026-05-04 14:34 24.94408 118.03557 14189 ft 242 kts 269°
2026-05-04 14:34 24.94227 118.01736 13841 ft 240 kts 250°
2026-05-04 14:34 24.93390 118.00146 13518 ft 242 kts 232°
2026-05-04 14:34 24.92065 117.98973 13201 ft 248 kts 213°
2026-05-04 14:35 24.90419 117.98366 12874 ft 256 kts 190°
2026-05-04 14:35 24.88637 117.98439 12608 ft 255 kts 182°
2026-05-04 14:35 24.86869 117.98608 12286 ft 255 kts 182°
2026-05-04 14:35 24.85107 117.98787 12005 ft 254 kts 182°
2026-05-04 14:36 24.83344 117.98963 11690 ft 255 kts 182°
2026-05-04 14:36 24.81580 117.99137 11398 ft 255 kts 181°
2026-05-04 14:36 24.79779 117.99310 10985 ft 270 kts 182°
2026-05-04 14:36 24.77813 117.99497 10758 ft 295 kts 181°
2026-05-04 14:37 24.75724 117.99702 10679 ft 303 kts 180°
2026-05-04 14:37 24.73628 117.99911 10534 ft 300 kts 180°
2026-05-04 14:37 24.71556 118.00107 10323 ft 297 kts 180°
2026-05-04 14:37 24.69528 118.00296 10231 ft 287 kts 181°
2026-05-04 14:38 24.67604 118.00474 10149 ft 276 kts 181°
2026-05-04 14:38 24.65721 118.00648 10049 ft 267 kts 181°
2026-05-04 14:38 24.63900 118.00816 9913 ft 259 kts 181°
2026-05-04 14:38 24.62119 118.00980 9677 ft 255 kts 181°
2026-05-04 14:39 24.60348 118.01143 9359 ft 256 kts 181°
2026-05-04 14:39 24.58578 118.01306 9071 ft 255 kts 180°
2026-05-04 14:39 24.56863 118.01195 8683 ft 244 kts 205°
2026-05-04 14:40 24.54304 117.98913 8067 ft 236 kts 231°
2026-05-04 14:40 24.53215 117.97564 7771 ft 236 kts 231°
2026-05-04 14:40 24.52122 117.96210 7469 ft 237 kts 230°
2026-05-04 14:40 24.51024 117.94862 7177 ft 237 kts 230°
2026-05-04 14:41 24.49917 117.93511 6896 ft 237 kts 230°
2026-05-04 14:41 24.48815 117.92169 6642 ft 237 kts 229°
2026-05-04 14:41 24.46176 117.90211 6028 ft 236 kts 186°
2026-05-04 14:42 24.43227 117.91385 5750 ft 223 kts 144°
2026-05-04 14:42 24.42069 117.92446 5611 ft 212 kts 128°
2026-05-04 14:42 24.41549 117.93886 5371 ft 205 kts 89°
2026-05-04 14:43 24.41929 117.95327 5129 ft 196 kts 53°
2026-05-04 14:43 24.42771 117.96478 4826 ft 193 kts 50°
2026-05-04 14:43 24.43593 117.97609 4651 ft 185 kts 51°
2026-05-04 14:43 24.44384 117.98711 4394 ft 183 kts 51°
2026-05-04 14:44 24.44902 117.99435 4227 ft 181 kts 51°
2026-05-04 14:44 24.45905 118.00838 4097 ft 167 kts 52°
2026-05-04 14:44 24.46597 118.01807 3967 ft 157 kts 52°
2026-05-04 14:44 24.47273 118.02755 3726 ft 159 kts 52°
2026-05-04 14:45 24.47960 118.03718 3282 ft 162 kts 52°
2026-05-04 14:45 24.48655 118.04695 2837 ft 163 kts 52°
2026-05-04 14:45 24.49334 118.05647 2421 ft 153 kts 52°
2026-05-04 14:45 24.49942 118.06497 2103 ft 137 kts 52°
2026-05-04 14:46 24.50521 118.07317 1620 ft 131 kts 51°
2026-05-04 14:46 24.51059 118.08079 1292 ft 124 kts 51°
2026-05-04 14:46 24.51581 118.08804 1050 ft 118 kts 51°
2026-05-04 14:46 24.52099 118.09524 844 ft 124 kts 51°
2026-05-04 14:47 24.52637 118.10277 456 ft 126 kts 51°
2026-05-04 14:47 24.53184 118.11045 242 ft 128 kts 51°
2026-05-04 14:47 24.53733 118.11818 62 ft 126 kts 52°
2026-05-04 14:47 24.54216 118.12499 53 ft 98 kts 52°
2026-05-04 14:48 24.54545 118.12951 48 ft 53 kts 52°
2026-05-04 14:48 24.54675 118.13152 49 ft 23 kts 64°
2026-05-04 14:48 24.54713 118.13352 51 ft 27 kts 92°
2026-05-04 14:48 24.54605 118.13473 49 ft 23 kts 145°
2026-05-04 14:49 24.54499 118.13485 53 ft 13 kts 159°
2026-05-04 14:49 24.54464 118.13512 49 ft 4 kts 143°
2026-05-04 14:49 24.54461 118.13514 49 ft 0 kts 143°